Home > Weather > Mistelbach > Past weeks

Flag for Austria Past Weather in Mistelbach, Lower Austria, Austria — Yesterday and Last 2 Weeks

Now
68 °F

Partly sunny.


Feels Like: 68 °F
Forecast: 66 / 83 °F
Wind: 5 mph from West

Location: Wien / Hohe Warte

Current Time: Jul 24, 2016 at 7:07:57 AM

Latest Report: Jul 24, 2016 at 6:00 AM


Visibility: 16 mi

Pressure: 30.02 "Hg

Humidity: 91%

Dew Point: 65 °F

Location of MistelbachLocation

Past Weather in Mistelbach — Graph

°F

Mistelbach Temperature Yesterday

Maximum temperature yesterday: 86 °F (at 4:00 PM)
Minimum temperature yesterday: 68 °F (at 6:00 AM)
Average temperature yesterday: 76 °F

High & Low Weather Summary for the Past Weeks

 TemperatureHumidityPressure
High92 °F (Jul 11, 2:00 PM)96% (Jul 23, 6:00 AM)30.22 "Hg (Jul 23, 6:00 AM)
Low55 °F (Jul 14, 6:00 AM)40% (Jul 10, 3:00 PM)29.76 "Hg (Jul 14, 7:00 AM)
Average71 °F68%30.00 "Hg
* Reported Jul 9 6:00 AM — Jul 24 6:00 AM, Mistelbach, Weather by CustomWeather, © 2016

Note: Actual official high and low records may vary slightly from our data, if they occured in-between our weather recording intervals... More about our weather records

Advertising

Mistelbach Weather History for the Previous 24 Hours

Scroll right to see more
 ConditionsComfort  
Time TempWeatherWind HumidityBarometerVisibility
6:00 AM
Sun, Jul 24
68 °FPartly sunny.5 mph91%30.02 "Hg16 mi
5:00 AM68 °FMild.3 mph93%30.03 "HgN/A
4:00 AM69 °FFog.2 mph91%30.02 "HgN/A
3:00 AM71 °FFog.7 mph86%30.01 "HgN/A
2:00 AM72 °FMild.1 mph83%29.98 "HgN/A
1:00 AM72 °FMild.1 mph81%29.98 "HgN/A
12:00 AM73 °FMild.1 mph81%29.98 "HgN/A
11:00 PM
Sat, Jul 23
74 °FPassing clouds.1 mph78%29.97 "Hg12 mi
10:00 PM76 °FMild.1 mph72%29.97 "HgN/A
9:00 PM78 °FWarm.2 mph64%29.96 "HgN/A
8:00 PM81 °FScattered clouds.2 mph54%29.95 "Hg25 mi
7:00 PM83 °FScattered clouds.5 mph54%29.95 "Hg25 mi
6:00 PM85 °FWarm.3 mph47%29.95 "HgN/A
5:00 PM85 °FPartly sunny.3 mph44%29.96 "Hg25 mi
4:00 PM86 °FPartly sunny.2 mph47%29.97 "Hg19 mi
3:00 PM84 °FPartly sunny.3 mph51%29.98 "Hg22 mi
2:00 PM83 °FPartly sunny.1 mph56%29.99 "Hg19 mi
1:00 PM82 °FPartly sunny.2 mph58%30.00 "Hg19 mi
12:00 PM80 °FPartly sunny.2 mph64%30.01 "Hg17 mi
11:00 AM78 °FPartly sunny.1 mph66%30.01 "Hg16 mi
10:00 AM75 °FPartly sunny.1 mph71%30.01 "Hg16 mi
9:00 AM72 °FOvercast.1 mph84%30.01 "Hg12 mi
8:00 AM70 °FMild.1 mph90%30.00 "HgN/A
Weather by CustomWeather, © 2016

See weather overviewHow to use our weather pages